TimeEST,TemperatureF,Dew PointF,Humidity,Sea Level PressureIn,VisibilityMPH,Wind Direction,Wind SpeedMPH,Gust SpeedMPH,PrecipitationIn,Events,Conditions,WindDirDegrees,DateUTC
12:13 AM,55.4,55.4,100,29.45,10.0,West,6.9,-,N/A,,Overcast,270,2011-11-11 05:13:00
12:30 AM,55.4,53.6,94,29.45,10.0,WNW,12.7,-,N/A,,Overcast,290,2011-11-11 05:30:00
12:55 AM,52.2,51.8,99,29.45,10.0,West,13.8,-,N/A,,Overcast,280,2011-11-11 05:55:00
1:09 AM,50.0,50.0,100,29.45,10.0,West,12.7,-,N/A,,Overcast,280,2011-11-11 06:09:00
1:49 AM,50.0,46.4,87,29.47,10.0,WNW,9.2,-,N/A,,Overcast,290,2011-11-11 06:49:00
1:55 AM,48.9,45.3,87,29.46,10.0,WNW,8.1,-,N/A,,Overcast,300,2011-11-11 06:55:00
2:42 AM,48.2,44.6,87,29.46,10.0,West,9.2,-,N/A,,Overcast,280,2011-11-11 07:42:00
2:55 AM,47.3,43.0,85,29.45,10.0,West,9.2,-,N/A,,Overcast,280,2011-11-11 07:55:00
3:55 AM,45.9,40.1,80,29.44,10.0,West,11.5,-,N/A,,Mostly Cloudy,280,2011-11-11 08:55:00
4:55 AM,45.0,38.8,79,29.43,10.0,WNW,8.1,-,N/A,,Mostly Cloudy,300,2011-11-11 09:55:00
5:55 AM,44.2,38.8,81,29.39,10.0,WNW,4.6,-,N/A,,Mostly Cloudy,290,2011-11-11 10:55:00
6:55 AM,44.4,38.5,80,29.42,10.0,West,13.8,-,N/A,,Overcast,280,2011-11-11 11:55:00
7:55 AM,43.9,36.5,75,29.43,10.0,West,13.8,-,N/A,,Overcast,280,2011-11-11 12:55:00
8:55 AM,43.9,35.8,73,29.42,10.0,West,11.5,-,N/A,,Overcast,280,2011-11-11 13:55:00
9:29 AM,44.6,35.6,71,29.41,10.0,WNW,13.8,-,N/A,Rain,Light Rain,290,2011-11-11 14:29:00
9:55 AM,44.4,35.1,70,29.43,10.0,West,8.1,18.4,0.00,Rain,Light Rain,270,2011-11-11 14:55:00
10:12 AM,44.6,33.8,66,29.43,10.0,WNW,11.5,-,N/A,,Overcast,290,2011-11-11 15:12:00
10:55 AM,45.9,32.9,61,29.43,10.0,WNW,12.7,-,0.00,,Mostly Cloudy,290,2011-11-11 15:55:00
11:55 AM,48.2,30.7,51,29.42,10.0,WNW,20.7,32.2,N/A,,Mostly Cloudy,300,2011-11-11 16:55:00
12:55 PM,49.3,26.8,42,29.44,10.0,WNW,19.6,27.6,N/A,,Scattered Clouds,290,2011-11-11 17:55:00
1:55 PM,50.0,25.9,39,29.46,10.0,NW,20.7,25.3,N/A,,Mostly Cloudy,310,2011-11-11 18:55:00
2:55 PM,48.0,21.6,35,29.50,10.0,WNW,13.8,25.3,N/A,,Scattered Clouds,300,2011-11-11 19:55:00
3:55 PM,45.9,23.0,41,29.52,10.0,West,12.7,21.9,N/A,,Scattered Clouds,280,2011-11-11 20:55:00
4:55 PM,43.7,25.0,48,29.57,10.0,West,12.7,23.0,N/A,,Partly Cloudy,280,2011-11-11 21:55:00
5:55 PM,41.2,28.4,60,29.61,10.0,West,12.7,19.6,N/A,,Partly Cloudy,280,2011-11-11 22:55:00
6:55 PM,39.6,29.5,67,29.64,10.0,WSW,10.4,-,N/A,,Partly Cloudy,240,2011-11-11 23:55:00
7:55 PM,39.4,30.6,71,29.68,10.0,West,13.8,19.6,N/A,,Mostly Cloudy,260,2011-11-12 00:55:00
8:34 PM,39.2,32.0,75,29.70,10.0,West,9.2,18.4,N/A,Rain,Light Rain,270,2011-11-12 01:34:00
8:44 PM,39.2,32.0,75,29.70,10.0,West,8.1,-,N/A,,Mostly Cloudy,270,2011-11-12 01:44:00
8:55 PM,39.2,30.6,71,29.71,10.0,West,10.4,-,0.00,,Scattered Clouds,280,2011-11-12 01:55:00
9:55 PM,38.1,30.0,73,29.73,10.0,West,8.1,-,N/A,,Scattered Clouds,260,2011-11-12 02:55:00
10:55 PM,37.9,28.9,70,29.77,10.0,West,11.5,-,N/A,,Partly Cloudy,260,2011-11-12 03:55:00
11:55 PM,36.7,27.9,70,29.81,10.0,WSW,5.8,-,N/A,,Mostly Cloudy,240,2011-11-12 04:55:00